• In Belarus
  • List of Countries
  • For 7 days
  • Water Temperature
  • Satellite Maps
  • Weather Map
  • Weather Widgets
  • user-avatar
    Login

    Hourly Weather Nakhchivan

    Today, 19 October, Thursday

    Time Temperature Precipitation Wind Pressure Humidity
    00:00 +13°C° 0 mm 1 mps 691 mmHg 50%
    01:00 +13°C° 0 mm 1 mps 691 mmHg 51%
    02:00 +12°C° 0 mm 1 mps 691 mmHg 52%
    03:00 +12°C° 0 mm 1 mps 690 mmHg 50%
    04:00 +12°C° 0 mm 1 mps 690 mmHg 51%
    05:00 +11°C° 0 mm 1 mps 690 mmHg 53%
    06:00 +11°C° 0 mm 1 mps 690 mmHg 54%
    07:00 +13°C° 0 mm 1 mps 691 mmHg 48%
    08:00 +14°C° 0 mm 0 mps 691 mmHg 42%
    09:00 +16°C° 0 mm 0 mps 691 mmHg 36%
    10:00 +19°C° 0 mm 1 mps 691 mmHg 33%
    11:00 +20°C° 0 mm 1 mps 691 mmHg 30%
    12:00 +21°C° 0 mm 1 mps 691 mmHg 27%
    13:00 +21°C° 0 mm 1 mps 691 mmHg 26%
    14:00 +21°C° 0 mm 1 mps 690 mmHg 24%
    15:00 +21°C° 0 mm 2 mps 690 mmHg 23%
    16:00 +20°C° 0 mm 1 mps 690 mmHg 26%
    17:00 +19°C° 0 mm 1 mps 690 mmHg 28%
    18:00 +18°C° 0 mm 1 mps 689 mmHg 31%
    19:00 +16°C° 0 mm 1 mps 689 mmHg 32%
    20:00 +16°C° 0 mm 1 mps 689 mmHg 34%
    21:00 +15°C° 0 mm 1 mps 689 mmHg 35%
    22:00 +15°C° 0 mm 1 mps 689 mmHg 35%
    23:00 +14°C° 0 mm 1 mps 689 mmHg 36%

    Tomorrow, 20 October, Friday

    Time Temperature Precipitation Wind Pressure Humidity
    00:00 +14°C° 0 mm 1 mps 689 mmHg 36%
    01:00 +13°C° 0 mm 1 mps 689 mmHg 37%
    02:00 +13°C° 0 mm 1 mps 688 mmHg 38%
    03:00 +12°C° 0 mm 1 mps 688 mmHg 39%
    04:00 +12°C° 0 mm 1 mps 688 mmHg 40%
    05:00 +10°C° 0 mm 0 mps 688 mmHg 41%
    06:00 +10°C° 0 mm 0 mps 688 mmHg 43%
    07:00 +12°C° 0 mm 0 mps 688 mmHg 38%
    08:00 +14°C° 0 mm 0 mps 689 mmHg 34%
    09:00 +18°C° 0 mm 1 mps 689 mmHg 30%
    10:00 +19°C° 0 mm 1 mps 689 mmHg 28%
    11:00 +20°C° 0 mm 1 mps 689 mmHg 26%
    12:00 +20°C° 0 mm 2 mps 689 mmHg 24%
    13:00 +20°C° 0 mm 2 mps 688 mmHg 23%
    14:00 +20°C° 0 mm 2 mps 688 mmHg 22%
    15:00 +21°C° 0 mm 2 mps 688 mmHg 22%
    16:00 +20°C° 0 mm 1 mps 688 mmHg 24%
    17:00 +19°C° 0 mm 1 mps 688 mmHg 27%
    18:00 +18°C° 0 mm 1 mps 688 mmHg 29%
    19:00 +15°C° 0 mm 0 mps 688 mmHg 31%
    20:00 +14°C° 0 mm 0 mps 688 mmHg 32%
    21:00 +14°C° 0 mm 0 mps 688 mmHg 33%
    22:00 +13°C° 0 mm 0 mps 688 mmHg 34%
    23:00 +13°C° 0 mm 0 mps 688 mmHg 35%

    Day after tomorrow, 21 October, Saturday

    Time Temperature Precipitation Wind Pressure Humidity
    00:00 +12°C° 0 mm 0 mps 688 mmHg 35%
    01:00 +12°C° 0 mm 0 mps 687 mmHg 36%
    02:00 +11°C° 0 mm 0 mps 687 mmHg 36%
    03:00 +11°C° 0 mm 0 mps 687 mmHg 37%
    04:00 +10°C° 0 mm 0 mps 687 mmHg 38%
    05:00 +10°C° 0 mm 0 mps 687 mmHg 38%
    06:00 +10°C° 0 mm 0 mps 687 mmHg 39%
    07:00 +12°C° 0 mm 0 mps 687 mmHg 35%
    08:00 +14°C° 0 mm 0 mps 688 mmHg 30%
    09:00 +16°C° 0 mm 0 mps 688 mmHg 25%
    10:00 +19°C° 0 mm 1 mps 688 mmHg 24%
    11:00 +20°C° 0 mm 1 mps 688 mmHg 22%
    12:00 +21°C° 0 mm 1 mps 687 mmHg 21%
    13:00 +21°C° 0 mm 1 mps 687 mmHg 20%
    14:00 +21°C° 0 mm 2 mps 686 mmHg 20%
    15:00 +21°C° 0 mm 2 mps 686 mmHg 19%
    16:00 +21°C° 0 mm 1 mps 686 mmHg 22%
    17:00 +19°C° 0 mm 1 mps 686 mmHg 24%
    18:00 +18°C° 0 mm 1 mps 686 mmHg 27%
    19:00 +16°C° 0 mm 1 mps 686 mmHg 28%
    20:00 +14°C° 0 mm 0 mps 686 mmHg 29%
    21:00 +14°C° 0 mm 0 mps 686 mmHg 30%
    22:00 +14°C° 0 mm 1 mps 686 mmHg 30%
    23:00 +14°C° 0 mm 1 mps 685 mmHg 30%

    22 October, Sunday

    Time Temperature Precipitation Wind Pressure Humidity
    00:00 +13°C° 0 mm 1 mps 685 mmHg 30%
    01:00 +13°C° 0 mm 1 mps 685 mmHg 30%
    02:00 +13°C° 0 mm 1 mps 685 mmHg 31%
    03:00 +12°C° 0 mm 1 mps 685 mmHg 31%
    04:00 +12°C° 0 mm 1 mps 685 mmHg 31%
    05:00 +12°C° 0 mm 1 mps 685 mmHg 32%
    06:00 +11°C° 0 mm 1 mps 685 mmHg 33%
    07:00 +13°C° 0 mm 1 mps 685 mmHg 29%
    08:00 +15°C° 0 mm 1 mps 686 mmHg 26%
    09:00 +18°C° 0 mm 1 mps 686 mmHg 23%
    10:00 +19°C° 0 mm 1 mps 686 mmHg 22%
    11:00 +20°C° 0 mm 1 mps 686 mmHg 21%
    12:00 +20°C° 0 mm 2 mps 686 mmHg 20%
    13:00 +20°C° 0 mm 2 mps 685 mmHg 19%
    14:00 +21°C° 0 mm 2 mps 685 mmHg 19%
    15:00 +21°C° 0 mm 3 mps 684 mmHg 19%
    16:00 +20°C° 0 mm 2 mps 684 mmHg 21%
    17:00 +18°C° 0 mm 2 mps 684 mmHg 24%
    18:00 +18°C° 0 mm 1 mps 684 mmHg 26%
    19:00 +16°C° 0 mm 1 mps 684 mmHg 27%
    20:00 +16°C° 0 mm 1 mps 685 mmHg 27%
    21:00 +15°C° 0 mm 1 mps 685 mmHg 28%
    22:00 +15°C° 0 mm 1 mps 685 mmHg 28%
    23:00 +14°C° 0 mm 1 mps 685 mmHg 28%

    23 October, Monday

    Time Temperature Precipitation Wind Pressure Humidity
    00:00 +14°C° 0 mm 1 mps 684 mmHg 28%
    01:00 +13°C° 0 mm 1 mps 684 mmHg 29%
    02:00 +13°C° 0 mm 1 mps 684 mmHg 30%
    03:00 +13°C° 0 mm 1 mps 684 mmHg 31%
    04:00 +12°C° 0 mm 1 mps 685 mmHg 32%
    05:00 +12°C° 0 mm 1 mps 685 mmHg 33%
    06:00 +11°C° 0 mm 1 mps 685 mmHg 34%
    07:00 +13°C° 0 mm 1 mps 686 mmHg 31%
    08:00 +15°C° 0 mm 1 mps 686 mmHg 28%
    09:00 +18°C° 0 mm 1 mps 687 mmHg 24%
    10:00 +19°C° 0 mm 1 mps 687 mmHg 23%
    11:00 +20°C° 0 mm 1 mps 687 mmHg 22%
    12:00 +21°C° 0 mm 1 mps 687 mmHg 21%
    13:00 +20°C° 0 mm 2 mps 687 mmHg 20%
    14:00 +20°C° 0 mm 2 mps 687 mmHg 20%
    15:00 +21°C° 0 mm 2 mps 686 mmHg 19%
    16:00 +19°C° 0 mm 2 mps 687 mmHg 22%
    17:00 +19°C° 0 mm 1 mps 687 mmHg 25%
    18:00 +18°C° 0 mm 1 mps 687 mmHg 27%
    19:00 +16°C° 0 mm 1 mps 687 mmHg 29%
    20:00 +16°C° 0 mm 1 mps 687 mmHg 31%
    21:00 +15°C° 0 mm 2 mps 687 mmHg 32%
    22:00 +15°C° 0 mm 1 mps 687 mmHg 33%
    23:00 +14°C° 0 mm 1 mps 687 mmHg 34%

    24 October, Tuesday

    Time Temperature Precipitation Wind Pressure Humidity
    00:00 +14°C° 0 mm 1 mps 687 mmHg 35%
    01:00 +14°C° 0 mm 1 mps 687 mmHg 36%
    02:00 +13°C° 0 mm 1 mps 687 mmHg 36%
    03:00 +13°C° 0 mm 1 mps 687 mmHg 36%
    04:00 +13°C° 0 mm 1 mps 687 mmHg 37%
    05:00 +13°C° 0 mm 1 mps 687 mmHg 38%
    06:00 +12°C° 0 mm 1 mps 687 mmHg 39%
    07:00 +14°C° 0 mm 1 mps 688 mmHg 36%
    08:00 +16°C° 0 mm 1 mps 688 mmHg 32%
    09:00 +18°C° 0 mm 1 mps 689 mmHg 29%
    10:00 +19°C° 0 mm 1 mps 689 mmHg 27%
    11:00 +20°C° 0 mm 1 mps 689 mmHg 25%
    12:00 +21°C° 0 mm 1 mps 689 mmHg 22%
    13:00 +21°C° 0 mm 2 mps 689 mmHg 22%
    14:00 +21°C° 0 mm 2 mps 688 mmHg 21%
    15:00 +23°C° 0 mm 2 mps 688 mmHg 20%
    16:00 +20°C° 0 mm 2 mps 689 mmHg 22%
    17:00 +19°C° 0 mm 2 mps 689 mmHg 25%
    18:00 +19°C° 0 mm 1 mps 689 mmHg 27%
    19:00 +18°C° 0 mm 1 mps 689 mmHg 30%
    20:00 +18°C° 0 mm 1 mps 689 mmHg 32%
    21:00 +16°C° 0 mm 1 mps 689 mmHg 34%
    22:00 +15°C° 0 mm 1 mps 689 mmHg 36%
    23:00 +15°C° 0 mm 1 mps 689 mmHg 38%
    Show more